ImprimablePdf
Hasselt, 09/10/2011, BEL - HBvL Dwars door Hasselt
Liste des rapports > 15km - Classement
Recherche: Page: [1]
190 Entrées
 
Les réclamations ne sont plus acceptées, les résultats sont considérés comme définitifs.
RangNrNomAgeTempsTkmMoy.ScrLocalité
1.4DOBBELAERE Steven49:503:20 18.0612DRONGEN
2.23FDEJAEGHERE Veerle49:503:20 18.0613
3.2453BYLOOS Marc50:553:24 17.6823DIEPENBEEK
4.1444BOLSIUS Tom53:043:33 16.9635X
5.2456HUYSMANS Bert56:453:47 15.8680LANAKEN
6.2962MAHITNE Jean Felix56:483:48 15.8581SINT KATELIJNE WAVER
7.1426SCHUTJES Alain56:553:48 15.8287LOMMEL
8.2899VAN POORTVLIET Rene57:453:51 15.59104DRAUFFELT
9.2402VERBEKE Kamiel58:213:54 15.43118BOUTERSEM
10.2358ZABEAU Pascal58:463:56 15.32143TREMELO
11.1902DENYS Shesny58:553:56 15.28148LOMMEL
12.2817BERTELS Kenny59:153:57 15.19164GENK
13.2995CEYSSENS Wim59:173:58 15.18166GROTE-BROGEL
14.2361SPAEPEN Pieter59:333:59 15.12182GENK
15.2045THEUNS Ruben59:474:00 15.06189X
16.489REEKMANS Johan59:504:00 15.04192HERK DE STAD
17.3482CECCALDI Christophe1:00:274:02 14.89203HERK DE STAD
18.1964JANSSEN Erik1:00:274:02 14.89204HEUSDEN-ZOLDER
19.2818VERTESSEN Quinten1:01:404:07 14.60255HASSELT
20.2776QUINTENS Dave1:01:474:08 14.57258LUMMEN
21.2319STESSENS Walter1:01:574:08 14.53260BOCHOLT
22.3384CONEN Yves1:02:024:09 14.51263ELEN
23.1450NOUWEN Rob1:02:264:10 14.42284X
24.1442VANHAMEL Kevin1:02:594:12 14.29311X
25.1425FVERHOEVEN Elly1:03:534:16 14.09356LOMMEL
26.2391FFERNANDO Olivia1:04:084:17 14.04379ZOUTLEEUW
27.3073FABRY Bart1:04:294:18 13.96405HERK DE STAD
28.3001BEYS Frank1:04:444:19 13.91425SINT TRUIDEN
29.555NOTELAERS Jo01:04:474:20 13.90428ZONHOVEN
30.2862WILLEKEN Andries1:04:484:20 13.89430BERCHEM
31.3511HENSKENS Iele1:04:524:20 13.88433
32.468GROENENDAELS Frank1:04:534:20 13.87435HASSELT
33.1440VAN REUSELT Julien1:05:154:21 13.79454X
34.3066GEUNES Michael1:05:184:22 13.78459LUMMEN
35.3009MEEUS Johan1:06:204:26 13.57533BEVERLO
36.3071GEORGOPOLIS Dimitri1:06:254:26 13.55536HOUTHALEN-OOST
37.2754VAN DEN BRANDE Hans1:06:334:27 13.52546ANTWERPEN
38.2872BANCKEN Theo1:06:424:27 13.49559PEER
39.2792DEVACHT Jan1:06:484:28 13.47566ZEDELGEM
40.3000BOES Johan1:06:564:28 13.45570KORTESSEM
41.1982DANLOY Jerry1:07:034:29 13.42578SINT-TRUIDEN
42.2309VANMUYSEN Ronny1:07:424:31 13.30611WELLEN
43.485VREYS Bram1:07:464:32 13.28623PEER
44.1935HENDRIKS Eric1:07:564:32 13.25639OVERPELT
45.2918ROBBEN Ludo1:08:024:33 13.23641KERMT
46.2524COOX Chris1:08:094:33 13.21653OPGLABBEEK
47.1723WAGEMANS Ruben1:08:244:34 13.16671X
48.802JACOBS Wouter1:08:254:34 13.16673TONGEREN
49.2380VANDERLEUN Rens1:08:254:34 13.16674GINGELOM
50.974VAN LOOK Geert1:08:284:34 13.15678X
51.2404RERREN Gust1:08:394:35 13.11691DIEST
52.3019FDANKBAAR Maartje1:08:394:35 13.11694RIJEN
53.3508CROYS Jimmy1:08:424:35 13.10698HELCHTEREN
54.1973OP 'T EYNDE Joost1:08:454:35 13.09701KOERSEL
55.2705LYNCH Brian1:09:034:37 13.04737
56.2333NOPPE Ferdy1:09:114:37 13.01748BERCHEM_ST_AGATHE
57.810WARSON Bert01:09:134:37 13.00753HASSELT
58.1974CLAES Tom1:09:264:38 12.96771KOERSEL
59.2876FOLLON Dirk1:09:344:39 12.94787HELCHTEREN
60.3510DEWIT Tim1:09:424:39 12.91801OVERPELT
61.1872CUSTERS Christophe-17291:09:564:40 12.87818BILZEN
62.2328MEUS Jourik1:09:594:40 12.86823OPOETEREN
63.2369HOUBEN Pieter1:10:004:40 12.86824DILSEN STOKKEM
64.1952GIELEN Ronald1:10:014:41 12.85825ALKEN
65.2618BOVE Yvo1:10:034:41 12.85827HASSELT
66.2553VAN DE VELDE Bram1:10:064:41 12.84836LOMMEL
67.2920VAES Andreas1:10:114:41 12.83843KAGGEVINNE
68.3038GROCHOWCZAK Danny1:10:164:42 12.81846GENK
69.2479HENDRIKX Pieter1:10:254:42 12.78859MAASMECHELEN
70.2318CLERCKX Erwin1:10:254:42 12.78861GROTE BROGEL
71.2514VAN VLIERBERGHE Raymond1:10:254:42 12.78863LANAKEN
72.2929LENAERTS Raf1:10:274:42 12.78864TIENEN
73.2512BRACKE Jens1:10:294:42 12.77866SCHILDE
74.1905VLASSAKS Joeri1:11:164:46 12.63940DIEPENBEEK
75.2985BLOEMEN Mark1:11:224:46 12.61948NEERPELT
76.2966MARNEFFE Kris1:11:414:47 12.56985ALKEN
77.1843LENAERTS Stijn1:11:424:47 12.55987SINT-TRUIDEN
78.2913FWILKEN Linda1:11:524:48 12.521013STADSKANAAL
79.1439KERKHOFS Stefan1:11:594:48 12.511022ZOLDER
80.1155MOERMANS Vincent1:12:024:49 12.501026RIEMST
81.2345GRAUWELS Frederic1:12:044:49 12.491034RUMMEN
82.3070MARCCALLINI Mario1:12:064:49 12.481037LANAKEN
83.1956JANNES Jelle1:12:114:49 12.471044BEGIJNENDIJK
84.560JAMAER Thijs01:12:254:50 12.431076SINT-TRUIDEN
85.3470KUYCKX Dirk1:12:254:50 12.431077HASSELT
86.1471JANSSEN Michiel1:12:284:50 12.421079ZONHOVEN
87.2779KNAEPEN Bart1:12:454:51 12.371106LUMMEN
88.1438LEHAEN Steven1:13:154:53 12.291167LOMMEL
89.801RIZZI Donato1:13:194:54 12.281178HEUSDEN-ZOLDER
90.479CAMBIER Marc1:13:264:54 12.261184ZOLDER
91.2311MELON Luc1:13:424:55 12.211206ROCOURT
92.2871BRANTS Patrick1:13:484:56 12.201214DENDERMONDE
93.3486SZYR Pieter1:13:504:56 12.191219AS
94.2340FJOSSA Caroline1:13:534:56 12.181220HERK DE STAD
95.29632SWENNEN Joeri411:14:054:57 12.151235HASSELT
96.2785RONCADA Luca1:14:144:57 12.121242ZONHOVEN
97.799BELIEN Alain1:14:354:59 12.071275PEER
98.1957LAMBRECHT Seppe1:14:384:59 12.061277LUMMEN
99.2356WILS Mathias1:14:434:59 12.051285BEVERLO
100.2996FVAN VLIJMEN Renee1:14:475:00 12.041287PEER
101.2823DECKERS Rudi1:14:575:00 12.011301HASSELT
102.2405THEYS Yves1:14:585:00 12.011303DIEST
103.2197HELEVEN Eddy1:14:595:00 12.001306DIEPENBEEK
104.1864VANDEWAERDE Joris1:15:145:01 11.961328KAULILLE
105.2613VANDIJCK Bart1:15:225:02 11.941339HASSELT
106.3087BROUWERS Kim1:15:315:03 11.921354NEERPELT
107.2914JASPERS Bart1:15:405:03 11.901373
108.1980BEETEN Didier1:15:535:04 11.861393LANDEN
109.2036CLAESEN Emiel1:16:025:05 11.841404ALKEN
110.1946SWENTERS Ivo1:16:035:05 11.841405DILSEN
111.1988VERSTRAETEN Jordy1:16:105:05 11.821412ZONHOVEN
112.2984DE WEVER Kristof1:16:175:06 11.801420HASSELT
113.2353ANTUNES Duarte1:16:575:08 11.701461HOUTHALEN
114.1445VANWEERT Stijn1:17:015:09 11.691468X
115.1067MAESEN Georges1:17:085:09 11.671480X
116.1978TRUYERS Stef1:17:125:09 11.661487KOERSEL
117.1451GOVERS Kevin1:17:155:09 11.651491X
118.2304LOLETTI Elio1:17:195:10 11.641494LIEGE
119.3477NUYTS Peter1:17:285:10 11.621514KURINGEN
120.1448FMAEX Hilde1:17:465:12 11.581534X
121.2043AERTS Gillean1:17:465:12 11.571535ZONHOVEN
122.1447MIERMANS Luc1:17:485:12 11.571537X
123.2609GEENEN Bart1:17:595:12 11.541557HAM
124.3047REPRIELS Koen1:18:205:14 11.491591BRUSSEL
125.3077FLEYSSEN Magda1:18:275:14 11.471600OVERPELT
126.2387STEC Rolf1:18:345:15 11.461612HOUTHALEN
127.2048SCHROEYERS Wouter1:18:545:16 11.411638ALKEN
128.1071SCHEPENS Tom1:19:055:17 11.381656X
129.1961LIBENS Tom1:19:065:17 11.381658GINGELOM
130.2437FFRANSEN Marcelin1:19:185:18 11.351671MUNSTERBILZEN
131.1959LANGENBERG Kenny1:19:205:18 11.341674LANAKEN
132.2521LAENEN Michiel1:19:325:19 11.321695WESTERLO
133.972PINCE Stephan1:19:445:19 11.291705X
134.3502VANPAESSCHEN Dennis1:19:485:20 11.281710HASSELT
135.3503MACHIELS Wouter1:19:485:20 11.281711HASSELT
136.2492PHILIPPART Alain1:19:495:20 11.281713KERMT
137.864COOLEN Bram1:20:005:20 11.251730X
138.3434DERWAEL Erwin1:20:105:21 11.231748WELLEN
139.2971CLOOSEN Guido1:20:115:21 11.231749DIEPENBEEK
140.2887ECTOR Dirk1:20:225:22 11.201764STOKROOIE
141.3460LEMOINE Rorie1:20:255:22 11.191767GENK
142.1992SHORETTE Vincent1:20:265:22 11.191773KORTESSEM
143.2365BERCKMANS Denis1:20:315:23 11.181781OVERIJSE
144.1452DERHAEG Stephane1:20:345:23 11.171784X
145.2422WARSON Theo1:20:485:24 11.141804REKEM
146.2366VROMANS Jean-Pierre1:20:555:24 11.121814
147.1993SWOLFS Robbe1:21:315:27 11.041854DIEST
148.1449FTACK Petra1:21:345:27 11.031856X
149.1958LAMMENS Brecht1:21:345:27 11.031857ALKEN
150.3521VANDENHOUDT Jo1:21:475:28 11.001876ALKEN
151.1947WILLEMS Eddy1:21:555:28 10.991889HEUSDEN-ZOLDER
152.1997FAPPERMONT Ellen1:21:575:28 10.981893HEUSDEN-ZOLDER
153.1928VAN GELDROP Sven1:22:105:29 10.961908GENK
154.2881SERGEANT Marnix1:22:125:29 10.951913MERENDREE
155.2302WIJNANTS Philip1:22:145:29 10.941917SINT AMANDS
156.1863FSONTROP Jolien1:22:185:30 10.941920KAULILLE
157.243CLOOSTERMANS Pieter_jan1:22:395:31 10.891949HEUSDEN ZOLDER
158.3485GREUNLINX Raf1:22:575:32 10.851971ZOLDER
159.1989MOTMANS Deon1:23:055:33 10.831977HASSELT
160.2986FHEYNS Sonia1:23:315:35 10.782002HEERS
161.2773BLEUS Xavier1:23:315:35 10.782003WELLEN
162.2037NIJS Bert1:23:395:35 10.762009HASSELT
163.1963MEULEMANS Willem1:24:275:38 10.662057AARSCHOT
164.2341CREEMERS Geert1:24:305:38 10.652064KOZEN
165.2494VANHOUTTE Bjorn1:25:315:43 10.522115MAASTRICHT
166.1446DENIS Anastasia1:25:575:44 10.472127X
167.3067DANIELS Eddy1:26:105:45 10.452145RIEMST
168.2921REYNIERS Luc1:26:145:45 10.442149BERLAAR
169.1962MATHIJS Jordy1:26:295:46 10.412167HECHTEL
170.804INDEHERBERGE Yannick1:27:435:51 10.262205HASSELT
171.2916THEUNIS Marc1:27:475:52 10.252209
172.1954AYDOGAN Ali1:28:335:55 10.162242MAASMECHELEN
173.3410GROSEMANS Didier1:28:355:55 10.162243OVERREPEN
174.1970AERTS Cedric1:29:085:57 10.102258KOERSEL
175.1951WOUTERS Matties1:29:095:57 10.102260KOERSEL
176.2619FJO NET Kristel1:29:115:57 10.092262MOL
177.2053FWATERINCKX Astrid1:29:275:58 10.062277X
178.2620MEYNEN Jan1:29:486:00 10.022289MOL
179.1489DUPONT Raymond1:30:076:01 9.992298SINT-TRUIDEN
180.3463FFREDERIX Marleen1:30:256:02 9.962309HEUSDEN-ZOLDER
181.1443VANDEBOSCH Kim1:30:256:02 9.962310X
182.2428DE BOODT Peter1:30:286:02 9.952312HOVE
183.3388FPOULET Gisele1:30:296:02 9.952313KOERSEL
184.1981BRAEKEN Sander1:30:316:03 9.942314EKSEL
185.1722WAGEMANS Patrick1:31:266:06 9.842342X
186.1706FHAMBLOK Rosa1:31:266:06 9.842343X
187.2975ZOONS Bart1:31:386:07 9.822351ZONHOVEN
188.2841SMITS Dirk1:32:426:11 9.712366HASSELT
DNF2879FLAMBERT TinaKURINGEN
DNF1718TURELINCKX FonsHERENTALS
DNF: abandon; DSQ: disqualifié; Vitesse en km/h
ChronoRace - Electronic Timing - www.chronorace.be